{"data":{"norad_id":67208,"intl_designator":"2025-304S","name":"STARLINK-36265","alt_names":[],"object_type":"PAYLOAD","status":"ACTIVE","operator":null,"country":"US","launch_date":"2025-12-17","launch_site_code":"AFWTR","launch_vehicle":null,"mission":null,"orbit_class":"UNKNOWN","rcs_meters":null,"size_class":null,"mass_kg":null,"dimensions":null,"purposes":["comms"],"wikipedia_slug":null,"has_3d_model":false,"image_url":null,"decayed_at":null,"tle_current":{"epoch":"2026-09-20T13:50:16.779840Z","epoch_age_seconds":71696,"freshness":"FRESH","line1":"1 67208U 25304S   26263.57658310  .00002606  00000+0  22607-3 0  9994","line2":"2 67208  70.0016  43.2068 0002964 269.6741  90.4079 14.98335882 43072","mean_motion":14.98335882,"eccentricity":0.0002964,"inclination_deg":70.0016,"raan_deg":43.2068,"arg_perigee_deg":269.6741,"mean_anomaly_deg":90.4079,"bstar":0.00022607,"rev_number":4307,"period_min":96.106621839548,"perigee_km":569.97766962263,"apogee_km":574.09773318563,"semimajor_km":6950.1747014041,"source":"CELESTRAK","updated_at":"2026-09-21T09:00:36.138537Z"}}}